Hourly Data Report for October 03, 2017

All times are specified in Local Standard Time (LST). Add 1 hour to adjust for Daylight Saving Time where and when it is observed.

NAKUSP CS
BRITISH COLUMBIA

50°16'09.930" N
117°49'01.540" W
512.10 m
1145297
71216
WNP

Download Data

Hourly Data (October 2017)
Hourly Data Report for October 3, 2017
Temp Definition
°C
Dew Point Temp Definition
°C
Rel Hum Definition
%
Wind Dir Definition
10's deg

Wind Spd Definition
km/h
Visibility Definition
km
Stn Press Definition
kPa
Hmdx Definition


Wind Chill Definition


Weather Definition


TIME
00:00 1.8 -0.2 86 8 5   96.53     LegendNANA
01:00 2.1 -0.8 81 8 7   96.61     LegendNANA
02:00 1.3 -0.7 87 7 5   96.65     LegendNANA
03:00 0.3 -1.4 88 7 5   96.68     LegendNANA
04:00 0.0 -1.4 90 7 5   96.72   -2 LegendNANA
05:00 0.2 -0.8 93 4 4   96.71     LegendNANA
06:00 -0.7 -1.8 92 4 4   96.76   -2 LegendNANA
07:00 1.3 -1.0 85 7 5   96.82     LegendNANA
08:00 6.4 0.4 66 15 3   96.82     LegendNANA
09:00 8.2 1.7 64 23 3   96.81     LegendNANA
10:00 9.3 1.7 59 26 5   96.81     LegendNANA
11:00 10.7 0.5 49 27 5   96.78     LegendNANA
12:00 12.6 -0.2 41 26 6   96.67     LegendNANA
13:00 12.9 -0.8 39 26 4   96.60     LegendNANA
14:00 12.8 -3.5 32 29 3   96.51     LegendNANA
15:00 13.6 -2.3 33 26 4   96.45     LegendNANA
16:00 12.4 -2.9 34 24 3   96.41     LegendNANA
17:00 9.3 -1.1 48 5 1   96.39     LegendNANA
18:00 7.3 -0.2 59 7 5   96.42     LegendNANA
19:00 4.9 -0.1 70 2 3   96.46     LegendNANA
20:00 4.1 -0.4 72 7 4   96.47     LegendNANA
21:00 3.7 -0.8 73 6 3   96.49     LegendNANA
22:00 3.0 -0.7 76 7 4   96.51     LegendNANA
23:00 2.0 -0.7 82 6 4   96.53     LegendNANA

Notes on Data Quality.

Legend

  • E = Estimated
  • M = Missing
  • NA = Not Available
  • ‡ = Partner data that is not subject to review by the National Climate Archives
Date modified: